{"data":{"norad_id":60149,"intl_designator":"2024-120Q","name":"STARLINK-32022","alt_names":[],"object_type":"PAYLOAD","status":"ACTIVE","operator":null,"country":"US","launch_date":"2024-06-27","launch_site_code":"AFETR","launch_vehicle":null,"mission":null,"orbit_class":"UNKNOWN","rcs_meters":null,"size_class":null,"mass_kg":null,"dimensions":null,"purposes":["comms"],"wikipedia_slug":null,"has_3d_model":false,"image_url":null,"decayed_at":null,"tle_current":{"epoch":"2026-09-21T21:30:58.846752Z","epoch_age_seconds":60906,"freshness":"FRESH","line1":"1 60149U 24120Q   26264.89651443 -.00000839  00000+0 -13704-4 0  9999","line2":"2 60149  53.1598 125.2064 0001331  89.7352 270.3803 15.34392213126549","mean_motion":15.34392213,"eccentricity":0.0001331,"inclination_deg":53.1598,"raan_deg":125.2064,"arg_perigee_deg":89.7352,"mean_anomaly_deg":270.3803,"bstar":-1.3704e-5,"rev_number":12654,"period_min":93.848234356231,"perigee_km":461.81586599349,"apogee_km":463.63690382655,"semimajor_km":6840.86338491,"source":"CELESTRAK","updated_at":"2026-09-22T09:00:49.179585Z"}}}